owner,sensor,date,latitude,longitude,vertical_datum,direction_of_sea_water_velocity,sea_water_speed,upward_sea_water_velocity,qcFlag 
TABS,ioos:station:wmo:42050:1,2004-10-01T00:00:00Z,28.8425,-94.2433,2.0,237.3519251,12.19710211,-99999.0,'11111222,11111222,99999999' 
TABS,ioos:station:wmo:42050:1,2004-10-01T00:30:00Z,28.8425,-94.2433,2.0,238.5595537,5.157140681,-99999.0,'11133222,11111222,99999999' 
TABS,ioos:station:wmo:42050:1,2004-10-01T01:00:00Z,28.8425,-94.2433,2.0,230.1941011,12.88691197,-99999.0,'11111222,11111222,99999999' 
TABS,ioos:station:wmo:42050:1,2004-10-01T01:30:00Z,28.8425,-94.2433,2.0,231.7720182,13.25172064,-99999.0,'11111222,11111222,99999999' 
TABS,ioos:station:wmo:42050:1,2004-10-01T02:00:00Z,28.8425,-94.2433,2.0,234.5347459,8.238476801,-99999.0,'11133222,11111222,99999999' 
TABS,ioos:station:wmo:42050:1,2004-10-01T02:30:00Z,28.8425,-94.2433,2.0,233.7840589,8.056525306,-99999.0,'11133222,11111222,99999999' 
TABS,ioos:station:wmo:42050:1,2004-10-01T03:00:00Z,28.8425,-94.2433,2.0,232.0565708,8.115423587,-99999.0,'11133222,11111222,99999999' 
TABS,ioos:station:wmo:42050:1,2004-10-01T03:30:00Z,28.8425,-94.2433,2.0,250.2311374,6.386368295,-99999.0,'11133222,11111222,99999999' 
TABS,ioos:station:wmo:42050:1,2004-10-01T04:00:00Z,28.8425,-94.2433,2.0,255.9633684,4.205567738,-99999.0,'11133222,11111222,99999999' 
TABS,ioos:station:wmo:42050:1,2004-10-01T04:30:00Z,28.8425,-94.2433,2.0,264.5714946,4.439909909,-99999.0,'11133222,11111222,99999999' 
TABS,ioos:station:wmo:42050:1,2004-10-01T05:00:00Z,28.8425,-94.2433,2.0,287.3120265,2.419607406,-99999.0,'11133222,11111222,99999999' 
TABS,ioos:station:wmo:42050:1,2004-10-01T05:30:00Z,28.8425,-94.2433,2.0,354.1934971,0.593043,-99999.0,'11133222,11111222,99999999' 
TABS,ioos:station:wmo:42050:1,2004-10-01T06:00:00Z,28.8425,-94.2433,2.0,296.0909227,2.160115738,-99999.0,'11133222,11111222,99999999' 
TABS,ioos:station:wmo:42050:1,2004-10-01T06:30:00Z,28.8425,-94.2433,2.0,346.4068559,2.510318705,-99999.0,'11133222,11111222,99999999' 
TABS,ioos:station:wmo:42050:1,2004-10-01T07:00:00Z,28.8425,-94.2433,2.0,1.580379236,1.450551619,-99999.0,'11133222,11111222,99999999' 
TABS,ioos:station:wmo:42050:1,2004-10-01T07:30:00Z,28.8425,-94.2433,2.0,9.090466123,3.038157336,-99999.0,'11133222,11111222,99999999' 
TABS,ioos:station:wmo:42050:1,2004-10-01T08:00:00Z,28.8425,-94.2433,2.0,12.38093844,2.938332861,-99999.0,'11133222,11111222,99999999' 
TABS,ioos:station:wmo:42050:1,2004-10-01T08:30:00Z,28.8425,-94.2433,2.0,336.5715724,2.94260089,-99999.0,'11133222,11111222,99999999' 
TABS,ioos:station:wmo:42050:1,2004-10-01T09:00:00Z,28.8425,-94.2433,2.0,9.986447508,3.056304959,-99999.0,'11133222,11111222,99999999' 
TABS,ioos:station:wmo:42050:1,2004-10-01T09:30:00Z,28.8425,-94.2433,2.0,326.8450547,2.3769939,-99999.0,'11133222,11111222,99999999' 
TABS,ioos:station:wmo:42050:1,2004-10-01T10:00:00Z,28.8425,-94.2433,2.0,40.74627874,0.857962703,-99999.0,'11133222,11111222,99999999' 
TABS,ioos:station:wmo:42050:1,2004-10-01T10:30:00Z,28.8425,-94.2433,2.0,303.3244753,3.039819074,-99999.0,'11133222,11111222,99999999' 
TABS,ioos:station:wmo:42050:1,2004-10-01T11:00:00Z,28.8425,-94.2433,2.0,106.1891684,2.259601735,-99999.0,'11133222,11111222,99999999' 
TABS,ioos:station:wmo:42050:1,2004-10-01T11:30:00Z,28.8425,-94.2433,2.0,80.65104427,1.662077014,-99999.0,'11133222,11111222,99999999' 
TABS,ioos:station:wmo:42050:1,2004-10-01T12:00:00Z,28.8425,-94.2433,2.0,166.3123307,5.578422716,-99999.0,'11133222,11111222,99999999' 
TABS,ioos:station:wmo:42050:1,2004-10-01T12:30:00Z,28.8425,-94.2433,2.0,188.9400248,9.201793303,-99999.0,'11133222,11111222,99999999' 
TABS,ioos:station:wmo:42050:1,2004-10-01T13:00:00Z,28.8425,-94.2433,2.0,191.6500617,8.913635622,-99999.0,'11133222,11111222,99999999' 
TABS,ioos:station:wmo:42050:1,2004-10-01T13:30:00Z,28.8425,-94.2433,2.0,183.3789006,7.973863555,-99999.0,'11133222,11111222,99999999' 
TABS,ioos:station:wmo:42050:1,2004-10-01T14:00:00Z,28.8425,-94.2433,2.0,188.9146957,8.776018459,-99999.0,'11133222,11111222,99999999' 
TABS,ioos:station:wmo:42050:1,2004-10-01T14:30:00Z,28.8425,-94.2433,2.0,202.3238575,8.345495791,-99999.0,'11133222,11111222,99999999' 
TABS,ioos:station:wmo:42050:1,2004-10-01T15:00:00Z,28.8425,-94.2433,2.0,196.9410965,8.613808681,-99999.0,'11133222,11111222,99999999' 
TABS,ioos:station:wmo:42050:1,2004-10-01T15:30:00Z,28.8425,-94.2433,2.0,198.6163933,5.983059418,-99999.0,'11133222,11111222,99999999' 
TABS,ioos:station:wmo:42050:1,2004-10-01T16:00:00Z,28.8425,-94.2433,2.0,207.6591636,5.385434059,-99999.0,'11133222,11111222,99999999' 
TABS,ioos:station:wmo:42050:1,2004-10-01T16:30:00Z,28.8425,-94.2433,2.0,254.9907005,1.428740704,-99999.0,'11133222,11111222,99999999' 
TABS,ioos:station:wmo:42050:1,2004-10-01T17:00:00Z,28.8425,-94.2433,2.0,303.4081674,1.689082591,-99999.0,'11133222,11111222,99999999' 
TABS,ioos:station:wmo:42050:1,2004-10-01T17:30:00Z,28.8425,-94.2433,2.0,0.55111315,4.160192303,-99999.0,'11133222,11111222,99999999' 
TABS,ioos:station:wmo:42050:1,2004-10-01T18:00:00Z,28.8425,-94.2433,2.0,24.31353765,7.626408067,-99999.0,'11133222,11111222,99999999' 
TABS,ioos:station:wmo:42050:1,2004-10-01T18:30:00Z,28.8425,-94.2433,2.0,22.90879148,10.37859335,-99999.0,'11111222,11111222,99999999' 
TABS,ioos:station:wmo:42050:1,2004-10-01T19:00:00Z,28.8425,-94.2433,2.0,18.77717566,10.59381895,-99999.0,'11111222,11111222,99999999' 
TABS,ioos:station:wmo:42050:1,2004-10-01T19:30:00Z,28.8425,-94.2433,2.0,27.86090478,13.0530303,-99999.0,'11111222,11111222,99999999' 
TABS,ioos:station:wmo:42050:1,2004-10-01T20:00:00Z,28.8425,-94.2433,2.0,32.80303111,12.71802658,-99999.0,'11111222,11111222,99999999' 
TABS,ioos:station:wmo:42050:1,2004-10-01T20:30:00Z,28.8425,-94.2433,2.0,25.57394632,11.37434394,-99999.0,'11111222,11111222,99999999' 
TABS,ioos:station:wmo:42050:1,2004-10-01T21:00:00Z,28.8425,-94.2433,2.0,17.32160108,9.43801886,-99999.0,'11133222,11111222,99999999' 
TABS,ioos:station:wmo:42050:1,2004-10-01T21:30:00Z,28.8425,-94.2433,2.0,23.52336447,6.489268064,-99999.0,'11133222,11111222,99999999' 
TABS,ioos:station:wmo:42050:1,2004-10-01T22:00:00Z,28.8425,-94.2433,2.0,36.77823879,4.994006408,-99999.0,'11133222,11111222,99999999' 
TABS,ioos:station:wmo:42050:1,2004-10-01T22:30:00Z,28.8425,-94.2433,2.0,40.53519796,2.815759223,-99999.0,'11133222,11111222,99999999' 
TABS,ioos:station:wmo:42050:1,2004-10-01T23:00:00Z,28.8425,-94.2433,2.0,60.5682761,2.950830392,-99999.0,'11133222,11111222,99999999' 
TABS,ioos:station:wmo:42050:1,2004-10-01T23:30:00Z,28.8425,-94.2433,2.0,24.52787358,2.264332131,-99999.0,'11133222,11111222,99999999' 
TABS,ioos:station:wmo:42050:1,2004-10-02T00:00:00Z,28.8425,-94.2433,2.0,177.2295802,1.241450764,-99999.0,'11133222,11111222,99999999' 
TABS,ioos:station:wmo:42050:1,2004-10-02T00:30:00Z,28.8425,-94.2433,2.0,269.1692655,0.69007246,-99999.0,'11133222,11111222,99999999' 
TABS,ioos:station:wmo:42050:1,2004-10-02T01:00:00Z,28.8425,-94.2433,2.0,244.4223481,1.297112177,-99999.0,'11133222,11111222,99999999' 
TABS,ioos:station:wmo:42050:1,2004-10-02T01:30:00Z,28.8425,-94.2433,2.0,240.5885835,2.341815535,-99999.0,'11133222,11111222,99999999' 
TABS,ioos:station:wmo:42050:1,2004-10-02T02:00:00Z,28.8425,-94.2433,2.0,237.063888,4.63492179,-99999.0,'11133222,11111222,99999999' 
TABS,ioos:station:wmo:42050:1,2004-10-02T02:30:00Z,28.8425,-94.2433,2.0,228.474909,5.249314241,-99999.0,'11133222,11111222,99999999' 
TABS,ioos:station:wmo:42050:1,2004-10-02T03:00:00Z,28.8425,-94.2433,2.0,247.5934458,5.981580059,-99999.0,'11133222,11111222,99999999' 
TABS,ioos:station:wmo:42050:1,2004-10-02T03:30:00Z,28.8425,-94.2433,2.0,252.8584925,6.58237799,-99999.0,'11133222,11111222,99999999' 
TABS,ioos:station:wmo:42050:1,2004-10-02T04:00:00Z,28.8425,-94.2433,2.0,264.2709335,6.311521211,-99999.0,'11133222,11111222,99999999' 
TABS,ioos:station:wmo:42050:1,2004-10-02T04:30:00Z,28.8425,-94.2433,2.0,271.7718865,5.82278284,-99999.0,'11133222,11111222,99999999' 
TABS,ioos:station:wmo:42050:1,2004-10-02T05:00:00Z,28.8425,-94.2433,2.0,294.7104822,6.769889216,-99999.0,'11133222,11111222,99999999' 
TABS,ioos:station:wmo:42050:1,2004-10-02T05:30:00Z,28.8425,-94.2433,2.0,291.0927111,6.002132954,-99999.0,'11133222,11111222,99999999' 
TABS,ioos:station:wmo:42050:1,2004-10-02T06:00:00Z,28.8425,-94.2433,2.0,303.3087836,6.24606276,-99999.0,'11133222,11111222,99999999' 
TABS,ioos:station:wmo:42050:1,2004-10-02T06:30:00Z,28.8425,-94.2433,2.0,314.2796538,6.746332337,-99999.0,'11133222,11111222,99999999' 
TABS,ioos:station:wmo:42050:1,2004-10-02T07:00:00Z,28.8425,-94.2433,2.0,314.6982325,8.046987014,-99999.0,'11133222,11111222,99999999' 
TABS,ioos:station:wmo:42050:1,2004-10-02T07:30:00Z,28.8425,-94.2433,2.0,324.3449657,6.79352633,-99999.0,'11133222,11111222,99999999' 
TABS,ioos:station:wmo:42050:1,2004-10-02T08:00:00Z,28.8425,-94.2433,2.0,317.0630384,6.679416142,-99999.0,'11133222,11111222,99999999' 
TABS,ioos:station:wmo:42050:1,2004-10-02T08:30:00Z,28.8425,-94.2433,2.0,322.0922061,6.070996623,-99999.0,'11133222,11111222,99999999' 
TABS,ioos:station:wmo:42050:1,2004-10-02T09:00:00Z,28.8425,-94.2433,2.0,310.9824516,7.669745758,-99999.0,'11133222,11111222,99999999' 
TABS,ioos:station:wmo:42050:1,2004-10-02T09:30:00Z,28.8425,-94.2433,2.0,308.6601388,4.418155724,-99999.0,'11133222,11111222,99999999' 
TABS,ioos:station:wmo:42050:1,2004-10-02T10:00:00Z,28.8425,-94.2433,2.0,277.5398484,3.429650128,-99999.0,'11133222,11111222,99999999' 
TABS,ioos:station:wmo:42050:1,2004-10-02T10:30:00Z,28.8425,-94.2433,2.0,276.8305914,3.615660382,-99999.0,'11133222,11111222,99999999' 
TABS,ioos:station:wmo:42050:1,2004-10-02T11:00:00Z,28.8425,-94.2433,2.0,232.0309981,3.7546904,-99999.0,'11133222,11111222,99999999' 
TABS,ioos:station:wmo:42050:1,2004-10-02T11:30:00Z,28.8425,-94.2433,2.0,234.937785,3.359672603,-99999.0,'11133222,11111222,99999999' 
TABS,ioos:station:wmo:42050:1,2004-10-02T12:00:00Z,28.8425,-94.2433,2.0,228.9344572,9.377126426,-99999.0,'11133222,11111222,99999999' 
TABS,ioos:station:wmo:42050:1,2004-10-02T12:30:00Z,28.8425,-94.2433,2.0,221.5876059,9.385803109,-99999.0,'11133222,11111222,99999999' 
TABS,ioos:station:wmo:42050:1,2004-10-02T13:00:00Z,28.8425,-94.2433,2.0,209.5589317,13.01379268,-99999.0,'11111222,11111222,99999999' 
TABS,ioos:station:wmo:42050:1,2004-10-02T13:30:00Z,28.8425,-94.2433,2.0,199.5833262,12.62002377,-99999.0,'11111222,11111222,99999999' 
TABS,ioos:station:wmo:42050:1,2004-10-02T14:00:00Z,28.8425,-94.2433,2.0,199.8084679,10.94778973,-99999.0,'11111222,11111222,99999999' 
TABS,ioos:station:wmo:42050:1,2004-10-02T14:30:00Z,28.8425,-94.2433,2.0,209.52812,12.80295669,-99999.0,'11111222,11111222,99999999' 
TABS,ioos:station:wmo:42050:1,2004-10-02T15:00:00Z,28.8425,-94.2433,2.0,191.5848887,12.24955509,-99999.0,'11111222,11111222,99999999' 
TABS,ioos:station:wmo:42050:1,2004-10-02T15:30:00Z,28.8425,-94.2433,2.0,202.3366058,11.52475596,-99999.0,'11111222,11111222,99999999' 
TABS,ioos:station:wmo:42050:1,2004-10-02T16:00:00Z,28.8425,-94.2433,2.0,203.5189527,15.48652317,-99999.0,'11111222,11111222,99999999' 
TABS,ioos:station:wmo:42050:1,2004-10-02T16:30:00Z,28.8425,-94.2433,2.0,197.7802563,12.1818882,-99999.0,'11111222,11111222,99999999' 
TABS,ioos:station:wmo:42050:1,2004-10-02T17:00:00Z,28.8425,-94.2433,2.0,195.6056498,12.75003137,-99999.0,'11111222,11111222,99999999' 
TABS,ioos:station:wmo:42050:1,2004-10-02T17:30:00Z,28.8425,-94.2433,2.0,208.2001695,12.37944264,-99999.0,'11111222,11111222,99999999' 
TABS,ioos:station:wmo:42050:1,2004-10-02T18:00:00Z,28.8425,-94.2433,2.0,212.5621651,17.33496467,-99999.0,'11111222,11111222,99999999' 
TABS,ioos:station:wmo:42050:1,2004-10-02T18:30:00Z,28.8425,-94.2433,2.0,225.0467637,17.21098486,-99999.0,'11111222,11111222,99999999' 
TABS,ioos:station:wmo:42050:1,2004-10-02T19:00:00Z,28.8425,-94.2433,2.0,234.942412,15.1115618,-99999.0,'11111222,11111222,99999999' 
TABS,ioos:station:wmo:42050:1,2004-10-02T19:30:00Z,28.8425,-94.2433,2.0,245.5129554,16.64729708,-99999.0,'11111222,11111222,99999999' 
TABS,ioos:station:wmo:42050:1,2004-10-02T20:00:00Z,28.8425,-94.2433,2.0,252.7456111,15.03666186,-99999.0,'11111222,11111222,99999999' 
TABS,ioos:station:wmo:42050:1,2004-10-02T20:30:00Z,28.8425,-94.2433,2.0,272.5220622,13.18276526,-99999.0,'11111222,11111222,99999999' 
TABS,ioos:station:wmo:42050:1,2004-10-02T21:00:00Z,28.8425,-94.2433,2.0,280.7328148,14.98207262,-99999.0,'11111222,11111222,99999999' 
TABS,ioos:station:wmo:42050:1,2004-10-02T21:30:00Z,28.8425,-94.2433,2.0,293.9172594,14.03513448,-99999.0,'11111222,11111222,99999999' 
TABS,ioos:station:wmo:42050:1,2004-10-02T22:00:00Z,28.8425,-94.2433,2.0,293.738292,14.50737743,-99999.0,'11111222,11111222,99999999' 
TABS,ioos:station:wmo:42050:1,2004-10-02T22:30:00Z,28.8425,-94.2433,2.0,300.1552613,12.99917305,-99999.0,'11111222,11111222,99999999' 
TABS,ioos:station:wmo:42050:1,2004-10-02T23:00:00Z,28.8425,-94.2433,2.0,310.8338205,8.564484806,-99999.0,'11133222,11111222,99999999' 
TABS,ioos:station:wmo:42050:1,2004-10-02T23:30:00Z,28.8425,-94.2433,2.0,308.929861,8.625572445,-99999.0,'11133222,11111222,99999999' 
TABS,ioos:station:wmo:42050:1,2004-10-03T00:00:00Z,28.8425,-94.2433,2.0,294.9936677,4.402238067,-99999.0,'11133222,11111222,99999999' 
TABS,ioos:station:wmo:42050:1,2004-10-03T00:30:00Z,28.8425,-94.2433,2.0,298.1119572,8.616472596,-99999.0,'11133222,11111222,99999999' 
TABS,ioos:station:wmo:42050:1,2004-10-03T01:00:00Z,28.8425,-94.2433,2.0,312.0067921,6.634643924,-99999.0,'11133222,11111222,99999999' 
TABS,ioos:station:wmo:42050:1,2004-10-03T01:30:00Z,28.8425,-94.2433,2.0,278.7579978,7.618825369,-99999.0,'11133222,11111222,99999999' 
TABS,ioos:station:wmo:42050:1,2004-10-03T02:00:00Z,28.8425,-94.2433,2.0,277.6048709,23.12336481,-99999.0,'11111222,11111222,99999999' 
TABS,ioos:station:wmo:42050:1,2004-10-03T02:30:00Z,28.8425,-94.2433,2.0,289.3258608,21.36376605,-99999.0,'11111222,11111222,99999999' 
TABS,ioos:station:wmo:42050:1,2004-10-03T03:00:00Z,28.8425,-94.2433,2.0,295.6451239,21.99680204,-99999.0,'11111222,11111222,99999999' 
TABS,ioos:station:wmo:42050:1,2004-10-03T03:30:00Z,28.8425,-94.2433,2.0,298.9458104,17.33554153,-99999.0,'11111222,11111222,99999999' 
TABS,ioos:station:wmo:42050:1,2004-10-03T04:00:00Z,28.8425,-94.2433,2.0,291.7541068,15.62255421,-99999.0,'11111222,11111222,99999999' 
TABS,ioos:station:wmo:42050:1,2004-10-03T04:30:00Z,28.8425,-94.2433,2.0,282.610371,16.07781702,-99999.0,'11111222,11111222,99999999' 
TABS,ioos:station:wmo:42050:1,2004-10-03T05:00:00Z,28.8425,-94.2433,2.0,283.2295915,17.39152955,-99999.0,'11111222,11111222,99999999' 
TABS,ioos:station:wmo:42050:1,2004-10-03T05:30:00Z,28.8425,-94.2433,2.0,290.4064829,16.54850446,-99999.0,'11111222,11111222,99999999' 
TABS,ioos:station:wmo:42050:1,2004-10-03T06:00:00Z,28.8425,-94.2433,2.0,294.9101265,14.86263772,-99999.0,'11111222,11111222,99999999' 
TABS,ioos:station:wmo:42050:1,2004-10-03T06:30:00Z,28.8425,-94.2433,2.0,293.8781472,10.30171345,-99999.0,'11111222,11111222,99999999' 
TABS,ioos:station:wmo:42050:1,2004-10-03T07:00:00Z,28.8425,-94.2433,2.0,289.7727252,9.755121732,-99999.0,'11133222,11111222,99999999' 
TABS,ioos:station:wmo:42050:1,2004-10-03T07:30:00Z,28.8425,-94.2433,2.0,298.3765265,5.660079505,-99999.0,'11133222,11111222,99999999' 
TABS,ioos:station:wmo:42050:1,2004-10-03T08:00:00Z,28.8425,-94.2433,2.0,299.0078196,4.722393461,-99999.0,'11133222,11111222,99999999' 
TABS,ioos:station:wmo:42050:1,2004-10-03T08:30:00Z,28.8425,-94.2433,2.0,287.4030844,7.72353546,-99999.0,'11133222,11111222,99999999' 
TABS,ioos:station:wmo:42050:1,2004-10-03T09:00:00Z,28.8425,-94.2433,2.0,293.7320237,10.58506967,-99999.0,'11111222,11111222,99999999' 
TABS,ioos:station:wmo:42050:1,2004-10-03T09:30:00Z,28.8425,-94.2433,2.0,284.4309401,8.105732539,-99999.0,'11133222,11111222,99999999' 
TABS,ioos:station:wmo:42050:1,2004-10-03T10:00:00Z,28.8425,-94.2433,2.0,279.7600434,8.55379448,-99999.0,'11133222,11111222,99999999' 
TABS,ioos:station:wmo:42050:1,2004-10-03T10:30:00Z,28.8425,-94.2433,2.0,287.354405,6.872852392,-99999.0,'11133222,11111222,99999999' 
TABS,ioos:station:wmo:42050:1,2004-10-03T11:00:00Z,28.8425,-94.2433,2.0,265.4812953,6.981697501,-99999.0,'11133222,11111222,99999999' 
TABS,ioos:station:wmo:42050:1,2004-10-03T11:30:00Z,28.8425,-94.2433,2.0,262.1066301,8.88416569,-99999.0,'11133222,11111222,99999999' 
TABS,ioos:station:wmo:42050:1,2004-10-03T12:00:00Z,28.8425,-94.2433,2.0,256.3068884,13.34940074,-99999.0,'11111222,11111222,99999999' 
TABS,ioos:station:wmo:42050:1,2004-10-03T12:30:00Z,28.8425,-94.2433,2.0,252.1627854,13.02613143,-99999.0,'11111222,11111222,99999999' 
TABS,ioos:station:wmo:42050:1,2004-10-03T13:00:00Z,28.8425,-94.2433,2.0,245.4108042,13.74657776,-99999.0,'11111222,11111222,99999999' 
TABS,ioos:station:wmo:42050:1,2004-10-03T13:30:00Z,28.8425,-94.2433,2.0,246.9144994,13.26197572,-99999.0,'11111222,11111222,99999999' 
TABS,ioos:station:wmo:42050:1,2004-10-03T14:00:00Z,28.8425,-94.2433,2.0,238.4915909,12.45650433,-99999.0,'11111222,11111222,99999999' 
TABS,ioos:station:wmo:42050:1,2004-10-03T14:30:00Z,28.8425,-94.2433,2.0,240.75218,14.71603547,-99999.0,'11111222,11111222,99999999' 
TABS,ioos:station:wmo:42050:1,2004-10-03T15:00:00Z,28.8425,-94.2433,2.0,245.2267532,17.73174836,-99999.0,'11111222,11111222,99999999' 
TABS,ioos:station:wmo:42050:1,2004-10-03T15:30:00Z,28.8425,-94.2433,2.0,243.7048505,18.9620674,-99999.0,'11111222,11111222,99999999' 
TABS,ioos:station:wmo:42050:1,2004-10-03T16:00:00Z,28.8425,-94.2433,2.0,242.8118358,18.51573655,-99999.0,'11111222,11111222,99999999' 
TABS,ioos:station:wmo:42050:1,2004-10-03T16:30:00Z,28.8425,-94.2433,2.0,251.6715017,20.3524544,-99999.0,'11111222,11111222,99999999' 
TABS,ioos:station:wmo:42050:1,2004-10-03T17:00:00Z,28.8425,-94.2433,2.0,254.6499637,22.32641933,-99999.0,'11111222,11111222,99999999' 
TABS,ioos:station:wmo:42050:1,2004-10-03T17:30:00Z,28.8425,-94.2433,2.0,257.7825721,21.92657064,-99999.0,'11111222,11111222,99999999' 
TABS,ioos:station:wmo:42050:1,2004-10-03T18:00:00Z,28.8425,-94.2433,2.0,264.7784933,19.45070179,-99999.0,'11111222,11111222,99999999' 
TABS,ioos:station:wmo:42050:1,2004-10-03T18:30:00Z,28.8425,-94.2433,2.0,263.0672118,19.55294607,-99999.0,'11111222,11111222,99999999' 
TABS,ioos:station:wmo:42050:1,2004-10-03T19:00:00Z,28.8425,-94.2433,2.0,265.9424734,21.48383811,-99999.0,'11111222,11111222,99999999' 
TABS,ioos:station:wmo:42050:1,2004-10-03T19:30:00Z,28.8425,-94.2433,2.0,271.0195148,20.80329061,-99999.0,'11111222,11111222,99999999' 
TABS,ioos:station:wmo:42050:1,2004-10-03T20:00:00Z,28.8425,-94.2433,2.0,265.1471949,23.05262241,-99999.0,'11111222,11111222,99999999' 
TABS,ioos:station:wmo:42050:1,2004-10-03T20:30:00Z,28.8425,-94.2433,2.0,270.8271044,22.87238072,-99999.0,'11111222,11111222,99999999' 
TABS,ioos:station:wmo:42050:1,2004-10-03T21:00:00Z,28.8425,-94.2433,2.0,269.0791464,23.03297202,-99999.0,'11111222,11111222,99999999' 
TABS,ioos:station:wmo:42050:1,2004-10-03T21:30:00Z,28.8425,-94.2433,2.0,266.7530948,19.07060565,-99999.0,'11111222,11111222,99999999' 
TABS,ioos:station:wmo:42050:1,2004-10-03T22:00:00Z,28.8425,-94.2433,2.0,266.5825713,19.96549524,-99999.0,'11111222,11111222,99999999' 
TABS,ioos:station:wmo:42050:1,2004-10-03T22:30:00Z,28.8425,-94.2433,2.0,269.6331432,21.89044769,-99999.0,'11111222,11111222,99999999' 
TABS,ioos:station:wmo:42050:1,2004-10-03T23:00:00Z,28.8425,-94.2433,2.0,267.973315,19.23202537,-99999.0,'11111222,11111222,99999999' 
TABS,ioos:station:wmo:42050:1,2004-10-03T23:30:00Z,28.8425,-94.2433,2.0,277.8480301,17.21118822,-99999.0,'11111222,11111222,99999999' 
TABS,ioos:station:wmo:42050:1,2004-10-04T00:00:00Z,28.8425,-94.2433,2.0,278.9929542,16.44209537,-99999.0,'11111222,11111222,99999999' 
TABS,ioos:station:wmo:42050:1,2004-10-04T00:30:00Z,28.8425,-94.2433,2.0,272.2689174,10.35811759,-99999.0,'11111222,11111222,99999999' 
TABS,ioos:station:wmo:42050:1,2004-10-04T01:00:00Z,28.8425,-94.2433,2.0,274.5904995,18.36891396,-99999.0,'11111222,11111222,99999999' 
TABS,ioos:station:wmo:42050:1,2004-10-04T01:30:00Z,28.8425,-94.2433,2.0,272.2998359,18.19465031,-99999.0,'11111222,11111222,99999999' 
TABS,ioos:station:wmo:42050:1,2004-10-04T02:00:00Z,28.8425,-94.2433,2.0,267.7611494,18.43406629,-99999.0,'11111222,11111222,99999999' 
TABS,ioos:station:wmo:42050:1,2004-10-04T02:30:00Z,28.8425,-94.2433,2.0,273.1244989,15.9637245,-99999.0,'11111222,11111222,99999999' 
TABS,ioos:station:wmo:42050:1,2004-10-04T03:00:00Z,28.8425,-94.2433,2.0,268.5200654,17.81593949,-99999.0,'11111222,11111222,99999999' 
TABS,ioos:station:wmo:42050:1,2004-10-04T03:30:00Z,28.8425,-94.2433,2.0,270.8140322,16.90170406,-99999.0,'11111222,11111222,99999999' 
TABS,ioos:station:wmo:42050:1,2004-10-04T04:00:00Z,28.8425,-94.2433,2.0,272.7554362,15.18755412,-99999.0,'11111222,11111222,99999999' 
TABS,ioos:station:wmo:42050:1,2004-10-04T04:30:00Z,28.8425,-94.2433,2.0,282.7433877,14.50732574,-99999.0,'11111222,11111222,99999999' 
TABS,ioos:station:wmo:42050:1,2004-10-04T05:00:00Z,28.8425,-94.2433,2.0,291.7065777,13.41093584,-99999.0,'11111222,11111222,99999999' 
TABS,ioos:station:wmo:42050:1,2004-10-04T05:30:00Z,28.8425,-94.2433,2.0,290.3161991,10.8872632,-99999.0,'11111222,11111222,99999999' 
TABS,ioos:station:wmo:42050:1,2004-10-04T06:00:00Z,28.8425,-94.2433,2.0,309.3475435,9.7631245,-99999.0,'11133222,11111222,99999999' 
TABS,ioos:station:wmo:42050:1,2004-10-04T06:30:00Z,28.8425,-94.2433,2.0,297.5452507,8.368590084,-99999.0,'11133222,11111222,99999999' 
TABS,ioos:station:wmo:42050:1,2004-10-04T07:00:00Z,28.8425,-94.2433,2.0,289.9406749,6.861348264,-99999.0,'11133222,11111222,99999999' 
TABS,ioos:station:wmo:42050:1,2004-10-04T07:30:00Z,28.8425,-94.2433,2.0,294.720335,6.528231001,-99999.0,'11133222,11111222,99999999' 
TABS,ioos:station:wmo:42050:1,2004-10-04T08:00:00Z,28.8425,-94.2433,2.0,297.5877859,7.017898546,-99999.0,'11133222,11111222,99999999' 
TABS,ioos:station:wmo:42050:1,2004-10-04T08:30:00Z,28.8425,-94.2433,2.0,279.9989304,7.02672043,-99999.0,'11133222,11111222,99999999' 
TABS,ioos:station:wmo:42050:1,2004-10-04T09:00:00Z,28.8425,-94.2433,2.0,287.4218777,9.118272863,-99999.0,'11133222,11111222,99999999' 
TABS,ioos:station:wmo:42050:1,2004-10-04T09:30:00Z,28.8425,-94.2433,2.0,280.5600507,7.039211604,-99999.0,'11133222,11111222,99999999' 
TABS,ioos:station:wmo:42050:1,2004-10-04T10:00:00Z,28.8425,-94.2433,2.0,291.5280533,7.385187878,-99999.0,'11133222,11111222,99999999' 
TABS,ioos:station:wmo:42050:1,2004-10-04T10:30:00Z,28.8425,-94.2433,2.0,283.4726751,6.653074477,-99999.0,'11133222,11111222,99999999' 
TABS,ioos:station:wmo:42050:1,2004-10-04T11:00:00Z,28.8425,-94.2433,2.0,259.5830438,7.798525502,-99999.0,'11133222,11111222,99999999' 
TABS,ioos:station:wmo:42050:1,2004-10-04T11:30:00Z,28.8425,-94.2433,2.0,250.0982624,7.7849149,-99999.0,'11133222,11111222,99999999' 
TABS,ioos:station:wmo:42050:1,2004-10-04T12:00:00Z,28.8425,-94.2433,2.0,252.3351063,10.347908,-99999.0,'11111222,11111222,99999999' 
TABS,ioos:station:wmo:42050:1,2004-10-04T12:30:00Z,28.8425,-94.2433,2.0,252.6486019,11.36726,-99999.0,'11111222,11111222,99999999' 
TABS,ioos:station:wmo:42050:1,2004-10-04T13:00:00Z,28.8425,-94.2433,2.0,259.0636602,12.01825278,-99999.0,'11111222,11111222,99999999' 
TABS,ioos:station:wmo:42050:1,2004-10-04T13:30:00Z,28.8425,-94.2433,2.0,248.3200936,13.96803494,-99999.0,'11111222,11111222,99999999' 
TABS,ioos:station:wmo:42050:1,2004-10-04T14:00:00Z,28.8425,-94.2433,2.0,241.0049881,13.92533303,-99999.0,'11111222,11111222,99999999' 
TABS,ioos:station:wmo:42050:1,2004-10-04T14:30:00Z,28.8425,-94.2433,2.0,239.5152115,15.37538617,-99999.0,'11111222,11111222,99999999' 
TABS,ioos:station:wmo:42050:1,2004-10-04T15:00:00Z,28.8425,-94.2433,2.0,242.5861834,16.00752948,-99999.0,'11111222,11111222,99999999' 
TABS,ioos:station:wmo:42050:1,2004-10-04T15:30:00Z,28.8425,-94.2433,2.0,238.9748773,14.49335365,-99999.0,'11111222,11111222,99999999' 
TABS,ioos:station:wmo:42050:1,2004-10-04T16:00:00Z,28.8425,-94.2433,2.0,242.481635,15.86486054,-99999.0,'11111222,11111222,99999999' 